RH
63 63 62 62 62 61 60 60 60 61 62 62 62 61 61 59 58 56 55 55 55 55 56 58 58 58 59 63 64 62 62 63 63 65 65 65 66 66 66 67 69 67 63 61 62 62 61 60 58 57 55 54 52 52 52 52 52 52 54 56 59 64 68
67 68 68 68 69 70 71 72 74 77 79 79 79 79 79 77 73 68 63 61 60 60 61 62 62 62 64 68 71 69 69 71 72 73 72 72 73 72 73 75 77 76 73 69 68 69 68 67 66 65 63 61 60 59 60 60 58 59 61 63 66 70 75
75 76 77 77 77 77 78 80 82 84 86 86 86 87 87 89 89 86 80 75 72 70 71 71 70 68 70 74 76 75 75 76 78 80 79 78 79 79 79 81 84 85 81 77 76 76 75 74 74 73 71 70 70 69 69 67 65 65 67 69 72 75 80
89 91 92 92 91 91 90 91 92 93 94 94 94 94 94 94 95 96 94 91 88 86 85 84 80 77 79 84 85 82 82 84 85 87 87 86 86 86 86 88 91 92 90 88 86 84 82 82 81 81 80 79 79 77 77 75 72 71 72 74 76 78 84
94 96 97 97 97 97 97 97 97 97 98 98 98 98 98 99 100 100 100 99 98 98 97 96 92 88 89 92 91 86 85 88 91 93 95 94 94 94 94 95 98 98 98 98 95 92 92 91 88 88 87 85 86 85 85 84 82 80 81 82 83 85 89
88 88 89 89 90 90 90 90 90 90 91 91 93 94 96 98 100 101 101 100 100 100 100 100 99 97 97 98 97 93 92 94 96 98 100 99 99 99 100 100 100 100 100 101 99 98 99 96 93 93 93 91 92 93 94 95 94 93 92 91 92 93 94
80 81 81 81 82 82 82 82 82 83 83 84 86 88 90 93 95 98 100 100 100 100 100 100 100 100 100 100 100 99 98 99 100 101 101 100 100 100 100 100 100 100 100 100 100 100 100 98 95 95 96 95 98 101 101 100 100 100 98 98 99 99 99
75 75 76 75 75 75 76 76 77 79 81 82 84 85 86 87 89 91 93 95 96 98 99 100 100 100 100 100 101 101 101 101 101 101 100 100 100 100 100 100 100 100 100 100 100 100 100 100 98 97 97 97 98 99 98 97 99 101 101 100 100 100 100
73 72 71 70 70 69 69 69 70 72 75 79 83 86 88 89 90 91 92 93 94 96 98 99 99 99 99 100 101 102 102 101 100 100 100 100 100 100 100 100 100 100 100 100 100 100 99 100 99 96 95 96 94 93 94 97 100 102 101 100 101 101 100
68 66 64 62 62 62 62 62 63 65 69 73 77 81 85 88 92 95 97 98 98 98 99 100 100 101 100 101 102 102 101 102 102 101 101 100 100 100 100 100 100 100 100 100 100 99 99 100 98 94 95 96 95 96 99 101 101 101 101 101 101 100 100
61 59 57 56 55 55 56 58 61 63 66 70 74 77 81 82 85 89 94 98 101 101 100 100 101 101 101 103 103 103 102 102 103 102 101 100 100 100 100 100 100 100 100 100 100 99 100 101 98 95 98 99 99 100 101 100 100 101 101 101 100 100 99
59 57 56 55 55 56 57 59 62 64 67 70 73 78 77 75 76 81 87 93 97 99 100 100 100 101 101 102 102 102 102 102 101 101 100 100 100 100 100 100 100 100 100 100 100 99 100 100 98 98 100 100 99 101 101 100 101 101 100 101 101 100 98
62 61 60 60 60 61 63 64 65 68 70 72 76 78 74 72 76 82 88 93 95 97 97 98 99 99 100 101 101 100 101 100 100 100 100 100 100 100 100 100 100 100 100 100 100 100 99 99 99 100 101 99 99 101 101 101 101 101 100 101 100 97 97
69 69 68 67 67 68 69 70 71 74 76 78 83 82 76 77 85 89 92 95 96 96 97 97 98 97 96 97 99 100 100 100 100 100 100 100 100 100 100 100 100 100 100 100 100 100 99 99 100 101 100 100 100 102 101 101 101 100 100 101 100 99 100
75 75 74 73 72 73 76 77 78 81 83 86 90 87 81 84 91 93 94 96 96 96 97 97 97 96 95 96 98 100 100 100 100 100 100 100 100 100 100 100 100 100 100 100 100 100 99 99 100 100 100 100 101 101 100 100 100 100 100 101 100 98 98
80 77 77 77 76 77 82 85 86 88 89 91 93 91 86 87 91 93 94 95 96 96 96 96 96 96 96 96 98 100 101 101 100 100 100 100 100 100 100 100 100 100 100 100 100 100 100 100 100 100 100 100 100 100 100 100 100 100 100 100 98 94 91
86 82 81 82 82 83 87 90 91 92 92 93 95 93 89 88 90 93 94 93 94 93 93 95 97 98 98 98 99 100 100 100 100 100 100 100 100 100 100 100 100 100 100 100 100 100 100 100 100 100 100 101 101 100 100 100 100 100 100 100 98 94 90
89 88 85 84 85 85 87 89 90 91 91 91 92 91 88 87 88 92 94 93 93 92 93 97 100 101 101 100 101 101 100 100 100 100 100 100 100 100 100 100 100 101 101 100 100 101 101 100 100 100 100 101 100 100 100 101 100 99 100 100 100 97 96
90 88 84 82 80 79 78 77 76 76 76 75 76 76 75 75 76 79 81 83 84 86 90 96 100 103 103 103 102 101 100 100 100 100 100 100 100 100 100 100 101 101 100 100 100 100 100 100 100 100 101 101 100 100 100 100 101 101 100 100 99 99 101
80 76 72 69 66 63 61 60 58 57 57 56 55 55 55 55 56 57 58 61 63 65 70 76 82 89 95 99 100 101 101 100 100 100 100 100 100 100 98 99 101 101 101 101 101 100 100 100 100 100 101 100 100 100 97 96 100 102 101 100 100 100 101
66 63 60 58 56 55 53 53 51 50 48 47 46 45 44 45 45 45 46 48 48 48 49 51 54 60 67 74 81 87 93 97 100 100 99 100 101 98 93 93 96 98 100 101 101 101 101 101 100 100 101 100 100 100 97 93 97 102 102 100 100 101 101
61 60 58 57 57 55 54 53 52 50 47 44 42 41 40 39 39 39 41 42 40 38 38 37 37 38 41 45 51 58 65 73 80 86 91 98 101 98 95 96 97 97 100 101 101 102 103 102 100 100 100 100 100 101 100 96 95 98 102 102 101 101 102
64 62 60 58 56 55 54 52 50 47 44 42 40 38 36 35 34 35 36 37 35 34 33 31 30 30 30 31 33 36 40 45 50 57 66 76 83 89 95 101 102 101 101 101 101 103 103 102 102 101 100 101 100 100 101 100 96 95 99 102 102 102 102
66 64 61 57 53 51 50 48 45 43 41 40 39 37 35 33 33 32 32 32 31 31 31 30 29 29 29 29 30 30 30 32 34 37 41 47 53 62 71 81 91 98 102 101 100 100 100 101 103 102 102 103 103 101 101 101 99 97 99 102 103 103 103
64 62 58 54 51 48 46 44 41 39 38 38 37 36 35 34 33 33 32 31 30 30 30 30 30 29 29 29 28 28 28 28 29 30 31 33 36 40 43 50 61 74 87 96 100 101 99 97 98 101 103 103 102 102 102 102 101 100 99 100 101 102 103
57 54 50 47 45 42 41 40 38 36 36 35 34 34 34 33 32 31 31 30 29 29 29 29 29 28 27 27 27 27 27 27 27 28 28 29 30 31 34 36 40 47 59 72 86 97 101 99 97 99 101 102 103 103 102 101 101 101 100 100 100 100 99
49 46 43 41 39 38 37 36 35 34 32 31 30 31 30 29 29 28 28 28 29 30 30 31 32 33 32 32 32 32 32 31 31 31 31 31 31 30 30 32 33 37 42 49 59 72 83 92 99 102 100 99 102 104 103 102 102 101 101 100 100 100 100
41 39 38 37 35 34 33 31 30 29 28 27 27 25 24 26 26 23 25 30 33 35 37 41 43 45 46 46 46 47 47 46 46 46 46 47 47 45 42 38 35 34 35 38 43 50 58 69 84 96 100 101 101 101 101 101 102 103 102 101 100 100 100
37 36 34 32 31 29 28 27 26 26 26 27 27 26 31 39 38 31 33 40 43 42 44 46 47 47 48 49 50 51 53 53 55 57 59 61 64 66 67 66 62 56 48 42 39 40 44 51 62 73 85 95 100 101 101 101 101 100 100 100 101 101 100
34 32 30 29 28 27 26 26 29 34 41 46 48 47 49 54 49 40 39 41 39 36 36 35 34 34 33 33 34 35 36 37 39 42 44 48 52 57 62 69 75 79 78 73 64 54 47 45 47 54 64 74 84 90 95 98 100 102 101 100 99 100 100
32 30 29 28 26 27 32 41 50 57 60 58 53 46 42 39 35 31 29 27 25 24 24 23 22 22 22 22 22 22 23 24 24 25 27 29 32 35 39 45 52 60 70 80 86 85 79 68 59 53 53 60 68 75 81 86 89 93 98 100 101 101 100
31 29 28 30 35 44 54 60 60 55 48 40 34 30 27 25 23 22 21 20 19 19 19 18 19 19 18 19 20 20 20 21 21 21 22 22 23 25 28 30 34 38 44 53 64 77 88 93 90 80 70 64 65 71 79 85 86 87 89 93 98 101 101
29 31 39 50 60 64 60 52 43 34 29 26 24 22 21 20 19 19 18 19 19 18 19 19 20 20 21 21 22 22 23 24 24 24 24 23 23 24 25 26 28 30 34 38 43 50 62 77 90 98 97 89 82 79 82 89 95 97 96 94 95 97 99
35 48 62 68 63 52 41 33 28 25 24 22 22 22 22 21 22 22 22 22 22 22 23 25 25 26 27 27 28 28 29 29 29 28 28 27 27 26 26 27 27 28 30 32 36 41 46 54 66 81 95 101 101 97 95 96 99 102 103 102 99 98 98
57 67 66 55 41 32 28 26 25 25 25 25 26 27 27 26 27 28 28 30 31 31 32 33 34 35 35 35 36 36 35 35 35 34 33 32 31 30 30 30 30 31 32 33 34 36 40 45 52 63 77 90 98 101 102 101 101 102 102 102 101 100 100
71 62 46 34 29 28 27 27 28 29 30 30 30 29 30 31 32 33 34 35 36 37 37 38 39 40 41 42 42 42 42 42 42 41 40 39 38 36 36 35 34 34 35 37 39 40 40 42 46 52 61 75 88 98 101 100 100 101 101 100 100 101 100
Wind_Speed
42 43 43 43 43 42 42 43 43 44 44 45 46 47 49 50 51 52 52 53 53 53 53 53 54 54 53 53 54 54 54 54 55 55 55 56 56 57 57 58 60 62 62 61 61 61 61 61 62 62 62 62 62 63 63 63 63 63 64 64 64 64 64
45 45 46 46 46 46 46 46 46 46 47 48 49 50 51 52 53 54 54 54 55 55 55 56 56 56 56 55 56 55 55 55 55 56 56 57 58 58 58 59 60 62 63 62 63 63 63 64 65 65 65 65 65 64 64 64 64 64 65 64 64 64 64
50 51 51 52 52 52 52 52 52 52 53 54 54 55 55 56 56 56 56 57 57 56 56 57 57 57 57 57 58 57 57 57 57 58 58 59 59 60 60 61 62 63 64 64 65 65 65 66 67 67 67 67 66 66 65 66 66 66 66 65 66 66 65
56 57 57 57 57 57 57 57 57 58 58 58 58 58 58 57 57 57 58 58 58 58 59 59 59 59 59 59 60 59 59 59 60 60 61 61 61 62 62 63 64 64 65 66 66 67 67 67 67 68 68 68 67 67 67 67 67 67 67 67 67 67 66
60 60 60 60 60 60 60 60 60 60 59 59 59 58 58 57 57 57 58 58 59 60 60 61 61 61 61 62 63 62 62 62 62 62 62 63 63 63 64 64 64 65 65 66 66 67 67 67 67 68 68 68 68 68 68 68 68 68 67 68 68 67 67
57 58 58 59 59 59 59 59 59 59 59 59 59 58 58 58 58 58 58 59 59 60 61 62 62 62 62 64 64 64 64 64 64 63 63 63 63 63 63 63 64 64 64 64 64 65 65 66 66 66 67 67 67 67 67 67 67 67 68 68 68 67 66
52 52 53 53 54 54 54 54 55 55 56 56 57 57 58 58 59 59 59 60 60 60 61 61 62 62 62 63 64 64 64 63 63 63 63 62 61 61 61 61 62 61 62 62 62 62 63 63 63 64 64 64 65 66 66 67 67 68 68 68 67 66 66
47 47 47 48 48 49 49 49 49 50 51 51 53 54 55 56 57 58 58 59 59 60 60 60 61 61 62 62 62 62 62 61 61 60 60 59 58 58 58 59 59 59 60 60 60 61 61 61 61 61 62 62 64 65 66 66 67 67 67 66 66 65 64
44 45 45 45 45 46 46 47 47 48 48 49 49 50 51 51 52 53 54 55 56 57 57 58 59 59 59 59 60 60 59 59 58 58 57 57 56 56 56 57 58 58 59 59 60 60 60 60 60 60 60 62 63 63 63 63 64 64 64 63 63 63 63
43 44 44 44 44 45 46 46 47 48 48 49 49 49 49 49 49 50 51 52 53 54 54 55 55 56 56 56 57 57 57 57 57 56 56 56 55 55 55 56 57 57 58 58 59 59 58 59 60 59 59 60 60 59 60 61 62 62 62 62 62 63 64
42 43 43 43 44 44 45 45 46 46 47 48 49 49 50 50 50 50 50 51 51 52 52 52 53 53 54 54 55 55 56 56 56 56 56 55 54 54 55 55 56 56 56 57 58 57 57 59 59 58 58 58 58 58 59 60 60 61 61 62 63 63 63
42 42 42 42 43 43 43 44 44 45 46 47 48 48 49 50 51 51 51 51 51 51 51 51 51 51 51 52 52 53 53 54 55 55 55 55 54 54 54 55 55 55 55 56 57 57 57 58 57 57 57 57 56 57 57 58 59 60 60 61 62 62 62
41 41 41 41 41 42 42 42 43 44 44 45 46 47 48 49 49 50 50 50 50 51 51 51 51 51 50 49 50 50 51 52 52 53 53 54 54 54 55 55 55 55 55 55 56 57 56 56 55 55 56 55 54 55 55 56 57 58 59 60 61 60 60
40 40 40 40 40 40 41 41 41 42 43 43 44 46 46 46 46 47 47 48 49 50 50 51 51 51 51 50 49 49 49 50 51 51 52 52 53 53 54 54 54 54 54 55 55 56 55 54 54 54 54 53 54 54 55 55 56 57 57 58 58 58 58
38 38 38 38 38 38 39 39 39 40 41 41 42 44 44 43 43 44 45 46 47 48 48 49 50 51 51 51 50 50 49 50 50 50 51 51 51 52 52 52 52 52 52 53 53 54 53 52 52 53 52 52 53 53 53 53 54 54 55 56 57 58 59
35 36 36 36 36 36 36 36 37 37 38 39 40 41 41 41 42 43 43 44 45 46 46 47 48 49 49 49 50 50 50 50 49 49 49 50 50 51 51 51 51 50 50 51 51 52 51 50 51 51 51 51 52 52 52 52 52 53 54 56 58 59 59
32 33 33 33 33 33 32 33 33 34 35 36 37 38 39 40 40 41 41 42 43 43 44 45 46 46 47 47 47 48 48 49 49 49 49 49 49 49 49 50 49 49 49 50 50 50 50 50 50 50 50 51 51 51 51 52 54 54 55 57 58 58 58
29 29 30 30 30 30 30 30 31 32 33 34 35 37 38 39 39 39 40 40 41 42 42 42 42 43 44 45 45 46 46 46 46 47 47 47 47 47 47 48 47 46 47 47 47 48 48 49 49 49 49 50 50 50 51 52 54 54 54 56 57 57 57
26 27 28 29 29 30 30 30 31 31 33 34 35 36 38 38 39 39 39 40 41 40 40 40 40 41 41 42 42 43 43 43 44 44 44 44 45 46 46 45 44 44 45 44 44 45 45 45 46 47 48 49 50 50 51 51 51 52 53 54 54 55 55
27 27 28 28 29 30 30 31 31 32 33 34 34 35 37 38 38 39 40 41 40 39 38 38 39 39 39 40 41 41 41 41 41 40 41 41 42 44 45 44 44 44 44 44 44 44 43 43 43 44 45 47 48 50 51 51 50 51 52 52 53 53 55
27 27 28 29 29 30 31 32 33 33 33 33 34 35 36 38 38 39 41 41 40 39 38 38 38 38 38 38 39 39 40 40 40 40 40 39 40 43 45 45 44 44 43 43 44 44 43 43 43 43 44 46 47 49 51 51 50 50 50 50 51 52 53
28 27 27 28 29 30 31 33 34 33 33 33 34 35 36 37 38 40 41 41 40 39 39 39 38 38 37 37 37 38 39 40 40 41 41 40 41 43 43 43 43 43 43 43 44 44 43 43 43 43 44 44 45 47 49 51 51 49 48 48 48 49 50
28 27 26 27 28 30 32 33 33 34 34 34 35 35 36 37 39 40 41 41 40 40 39 39 39 39 38 38 38 38 38 39 40 40 40 40 41 41 41 40 41 41 42 43 43 43 44 44 43 43 44 44 44 44 45 47 49 48 46 45 45 46 48
30 28 27 26 27 30 32 33 33 33 34 35 36 37 37 38 39 40 40 40 40 40 40 40 40 40 40 40 39 39 39 39 40 40 41 41 41 41 41 40 40 40 41 42 44 44 45 44 44 44 44 44 43 42 41 43 46 47 46 44 44 44 45
31 30 28 27 28 29 30 31 31 31 33 35 37 38 38 39 40 40 40 40 40 40 40 41 42 42 42 42 42 42 42 41 41 42 42 42 42 42 42 42 42 42 42 43 44 46 46 46 46 46 45 44 42 41 40 41 43 45 46 45 45 45 45
31 30 28 27 28 29 30 30 30 30 32 34 36 38 39 39 39 39 39 39 39 39 40 42 43 44 44 44 44 44 44 44 43 43 43 44 44 44 44 44 44 44 44 45 46 47 48 49 49 49 47 46 45 45 44 43 44 45 46 47 47 47 48
32 32 30 29 30 31 31 32 31 31 33 35 37 39 40 39 39 39 39 39 38 39 40 42 43 44 44 45 45 46 46 46 46 46 45 45 45 45 45 45 45 46 46 47 48 48 50 51 51 52 51 50 49 49 48 47 46 47 48 48 48 49 50
32 33 32 32 33 33 34 34 34 34 36 37 39 41 41 40 41 42 41 40 40 40 41 41 42 42 43 44 45 45 46 46 47 47 47 47 46 46 46 46 46 47 47 48 49 50 51 52 53 54 54 54 54 53 51 50 49 50 50 50 51 51 52
34 35 35 35 35 36 36 36 35 36 37 38 40 42 41 41 43 44 43 42 43 43 43 43 43 43 43 43 44 44 45 45 46 46 47 47 47 47 47 47 48 48 48 49 49 50 51 52 53 54 56 57 57 56 55 54 53 52 53 53 54 54 54
35 37 37 37 36 37 37 37 36 36 37 38 39 40 39 40 43 44 42 42 43 44 44 44 44 45 45 45 45 45 45 45 45 46 46 46 47 47 48 48 48 49 49 49 50 50 51 52 52 54 55 56 58 58 57 56 55 54 54 55 55 55 54
34 35 36 37 37 37 37 37 37 37 37 38 39 39 38 39 41 42 42 42 43 43 44 44 44 44 45 45 45 45 45 45 46 46 46 46 46 47 47 48 48 49 49 50 50 51 51 52 52 53 53 55 56 57 57 57 56 55 55 55 55 55 54
32 33 34 35 36 37 37 36 36 36 37 37 38 38 37 38 39 40 39 40 40 41 41 41 41 41 41 41 42 42 42 42 43 43 44 44 44 45 45 46 47 48 48 49 50 50 51 52 52 53 53 53 54 55 56 56 56 55 55 55 55 55 55
31 31 32 33 34 35 35 35 35 35 35 35 35 35 35 35 35 36 36 36 36 36 37 37 37 38 38 38 38 38 38 38 39 39 40 41 41 42 42 43 44 46 47 48 49 49 50 51 51 52 53 53 53 53 53 54 54 54 53 53 53 54 54
29 29 30 30 31 31 32 32 31 31 31 30 30 30 31 31 32 33 33 33 34 34 34 34 34 35 35 35 35 35 35 35 35 35 36 37 37 38 39 39 40 41 43 44 46 47 48 49 50 51 51 52 52 52 52 52 52 52 52 51 50 50 51
27 28 27 27 27 27 27 27 26 26 27 27 27 27 28 28 28 29 29 30 31 31 32 32 31 31 31 31 31 31 31 31 31 32 32 33 33 34 35 36 36 37 38 39 41 43 45 46 48 49 49 50 51 51 51 51 51 50 50 50 48 47 48
26 26 25 24 23 23 23 23 24 24 25 26 27 27 27 27 26 26 26 27 27 28 29 29 29 29 29 28 28 28 28 28 28 28 29 29 30 31 31 32 33 33 34 35 36 37 39 41 43 45 46 48 49 50 50 50 50 50 49 49 48 47 46
Wind_Direction
270 269 269 269 268 267 266 266 266 266 267 268 269 270 270 270 269 269 268 267 266 266 266 265 265 265 265 264 264 264 264 263 263 263 263 263 263 263 263 264 264 265 266 266 266 267 266 266 265 264 263 263 262 261 260 259 259 259 258 258 257 257 257
271 272 272 272 271 270 270 270 270 270 271 271 272 273 273 273 271 270 268 267 266 266 265 265 265 264 264 264 265 264 264 264 264 264 264 263 263 263 263 264 264 265 265 266 266 266 266 266 266 265 264 263 262 261 260 259 258 258 257 257 257 256 256
273 273 273 273 273 273 272 272 272 273 273 274 274 275 275 275 274 272 270 269 268 267 266 265 265 265 265 265 265 265 265 265 265 265 265 264 264 264 264 264 264 264 264 265 265 265 265 265 265 265 264 264 262 261 260 259 258 257 256 256 256 256 255
275 275 275 275 274 274 274 274 275 275 276 276 276 275 275 275 274 272 271 270 270 269 268 267 267 267 266 266 266 266 266 266 266 266 266 266 265 265 265 265 264 263 264 264 264 264 263 263 263 263 263 263 262 261 260 259 258 257 256 256 256 255 255
275 275 276 276 276 276 276 276 276 277 277 277 276 276 275 274 272 271 271 270 270 269 269 269 269 269 268 267 267 267 267 267 267 267 267 266 266 266 265 264 264 263 263 263 262 262 262 262 262 262 262 262 262 261 260 260 259 258 257 257 256 256 256
275 275 275 276 276 276 277 277 277 277 277 276 276 275 274 273 272 271 270 269 269 269 268 268 269 269 268 268 268 268 268 268 268 268 268 267 267 266 266 265 264 264 263 262 262 262 262 262 261 261 261 261 261 261 260 260 259 259 258 257 257 257 257
276 276 276 276 276 276 276 276 276 276 275 275 275 274 273 272 271 271 270 269 269 268 268 269 269 269 269 269 269 269 269 269 269 269 268 267 267 266 266 265 265 264 264 263 263 262 262 262 262 261 261 261 260 259 259 258 258 257 257 257 257 257 257
276 276 276 276 276 276 276 276 276 275 274 274 273 272 272 271 271 270 270 269 269 268 269 269 269 269 269 270 270 270 270 270 270 269 268 267 266 266 265 265 265 264 264 264 263 263 262 262 261 260 260 259 258 258 258 258 258 258 258 258 258 257 257
276 276 276 277 277 277 277 277 276 276 275 274 273 272 271 271 270 270 270 269 269 268 268 268 268 268 268 269 269 269 269 269 268 268 267 267 266 266 265 265 265 264 263 263 262 262 262 261 260 260 259 259 259 259 259 259 258 257 257 257 256 255 255
277 277 277 277 277 277 277 277 277 277 277 276 276 275 274 274 273 272 272 271 270 269 268 268 268 268 268 268 268 268 268 268 268 267 267 267 266 266 265 265 264 263 263 263 263 262 262 261 260 261 260 259 259 258 257 255 255 255 254 253 253 253 254
278 278 278 278 278 277 277 277 277 277 277 277 277 277 276 276 275 275 274 273 272 272 271 270 269 269 269 269 269 269 268 268 267 266 266 265 265 264 264 263 263 263 263 262 262 262 261 260 261 261 259 258 258 256 254 253 253 252 252 252 252 253 254
282 281 281 281 280 280 279 279 278 278 278 277 277 277 276 276 276 276 275 275 274 273 273 272 271 270 269 268 268 268 267 267 266 265 264 263 262 262 261 262 261 262 262 262 261 261 261 260 261 260 259 259 258 256 254 252 252 252 251 251 252 253 255
284 284 283 282 282 281 281 281 280 279 279 278 278 277 277 277 277 277 276 276 275 274 274 273 272 271 269 268 268 267 266 265 264 263 263 262 261 260 260 260 260 261 261 261 261 261 261 261 261 260 259 259 258 255 253 251 251 252 251 251 253 254 255
284 284 283 283 282 282 282 281 281 280 280 280 279 279 279 279 278 278 277 277 276 275 275 274 273 272 271 270 269 267 267 266 264 263 262 261 261 260 260 260 260 260 261 261 261 261 261 261 261 260 260 259 256 254 253 252 252 251 251 252 253 254 254
283 283 283 282 281 281 281 281 281 280 280 280 279 279 279 279 278 277 277 276 276 275 275 275 274 273 272 271 270 268 267 266 265 264 264 263 262 262 261 261 260 261 261 261 260 260 261 260 260 259 259 257 256 255 254 253 251 250 250 251 251 252 252
284 283 283 283 282 282 283 283 283 282 282 281 280 280 279 278 277 277 276 276 275 274 274 274 273 272 272 271 270 269 268 266 265 264 264 263 263 263 262 262 261 261 261 260 260 260 260 259 258 258 257 256 255 254 253 251 249 248 249 249 250 252 253
285 285 284 284 284 284 285 285 285 285 285 284 283 283 281 280 279 278 278 277 276 275 274 273 272 271 270 270 269 268 267 266 265 264 263 263 262 262 262 262 261 261 260 259 259 259 259 258 258 257 256 255 254 254 252 250 249 249 249 249 251 253 254
288 288 288 287 287 288 288 288 288 287 287 286 285 285 284 283 282 281 280 279 277 276 276 275 274 273 272 270 269 267 267 266 266 266 265 264 263 262 261 261 261 260 259 259 258 258 257 257 257 256 255 254 254 253 251 250 251 251 250 250 252 254 255
292 292 292 292 293 292 292 292 291 290 288 288 287 287 286 285 285 284 282 281 279 278 278 277 276 275 274 272 271 269 268 267 267 267 267 266 265 264 263 262 261 261 260 259 258 257 257 256 256 256 256 255 254 253 252 252 252 252 251 251 253 254 254
297 297 297 297 298 298 297 296 294 293 291 291 291 290 289 288 287 286 284 282 281 281 280 278 277 275 275 274 273 272 271 270 270 269 269 268 267 266 264 262 261 260 260 259 258 257 256 255 254 253 254 254 254 254 253 252 251 250 251 252 252 253 253
301 302 303 303 303 302 301 299 297 296 296 295 294 293 291 290 289 287 285 284 284 284 282 280 278 277 276 275 274 273 273 272 271 269 268 267 266 266 266 264 263 262 260 259 259 258 256 255 253 251 250 251 253 254 255 254 251 250 250 251 251 252 253
303 305 306 306 306 305 303 301 300 300 300 299 297 295 293 292 290 289 287 288 288 287 285 284 283 281 279 277 275 273 272 271 270 269 269 268 266 267 268 268 268 266 264 262 260 259 257 255 253 251 250 249 250 252 255 256 256 253 252 251 251 252 254
305 306 308 309 307 305 302 301 302 302 301 300 298 296 294 293 291 290 290 291 290 289 288 287 285 283 282 279 277 274 272 271 270 269 268 267 266 266 266 266 266 267 266 265 263 261 259 257 255 253 251 251 250 251 253 257 259 259 257 255 253 253 254
306 307 309 309 306 303 301 301 302 303 301 300 298 296 294 293 292 292 292 293 292 291 290 288 285 283 281 278 276 274 272 270 269 268 267 266 265 265 264 263 263 263 263 264 264 263 261 260 258 256 255 255 254 253 254 256 258 259 258 256 254 252 252
305 306 307 307 303 300 299 300 301 301 299 297 296 294 293 292 292 292 293 293 292 292 290 288 286 283 281 279 277 275 273 272 270 269 268 267 266 265 264 262 261 259 259 259 261 262 262 261 260 258 257 256 255 253 251 250 252 254 255 255 253 252 250
305 306 307 306 302 300 299 299 299 299 297 294 293 292 291 291 292 292 291 291 290 289 287 286 285 284 283 282 281 280 278 276 274 271 270 268 267 265 264 262 261 258 257 255 255 257 258 259 260 259 258 255 253 252 250 248 248 249 251 253 253 253 252
307 308 309 307 304 302 302 301 302 301 298 295 294 292 291 293 293 291 289 288 287 285 284 283 282 282 282 281 280 280 279 277 276 275 273 271 269 267 265 264 262 260 258 255 254 253 253 255 256 257 257 256 254 253 252 250 248 248 248 250 252 254 255
308 308 309 309 307 306 305 305 305 304 301 299 298 295 295 298 296 292 291 291 290 287 285 284 283 282 281 279 279 278 277 276 276 275 274 272 271 269 267 265 264 262 260 258 256 254 253 252 252 253 254 255 255 254 253 252 250 248 248 249 250 252 254
311 311 311 312 311 310 309 309 309 307 305 304 302 300 302 304 300 296 296 298 296 294 292 290 288 286 284 282 281 279 277 276 275 274 273 272 271 270 268 267 265 263 261 259 258 256 255 253 251 251 251 252 253 253 253 252 251 250 249 248 249 250 252
314 314 314 314 314 313 313 313 312 311 310 308 306 306 308 306 303 301 302 301 299 297 296 294 293 291 289 287 285 283 280 278 276 274 273 272 271 270 268 267 266 264 262 261 259 258 256 255 253 252 251 251 251 251 251 251 251 250 249 249 249 249 250
315 315 315 315 315 315 315 315 315 314 313 311 310 311 310 307 305 304 304 302 300 299 297 296 295 293 291 290 288 287 285 283 280 278 275 273 271 269 268 266 265 263 262 261 260 258 257 256 255 254 252 251 251 251 251 250 250 250 249 249 249 249 248
315 315 315 315 316 316 317 317 316 316 314 314 313 312 311 308 307 306 305 304 303 302 300 299 298 296 294 293 292 290 289 287 285 283 280 278 275 272 269 267 265 263 262 261 259 258 257 256 255 254 253 252 251 251 251 251 250 250 249 249 249 249 248
315 316 316 316 317 317 318 318 318 318 317 317 316 315 314 313 312 311 310 309 307 306 305 304 303 302 301 300 298 296 295 293 291 288 286 283 280 277 274 271 268 266 263 261 259 258 257 255 254 253 252 252 251 250 250 250 250 250 250 249 249 249 249
316 317 318 318 318 319 319 320 321 321 322 323 323 322 321 320 319 318 317 316 315 314 313 312 311 309 308 306 304 303 301 299 297 294 291 289 286 283 280 276 273 270 267 264 262 259 257 256 254 253 252 251 250 249 249 249 249 249 249 249 249 249 249
318 320 321 321 321 322 324 326 328 330 332 332 332 331 330 329 328 328 327 326 324 322 321 319 318 316 314 313 311 309 306 304 302 300 297 294 291 288 285 282 279 275 272 268 265 262 260 257 255 254 252 251 249 248 248 247 247 247 247 248 247 248 249
324 325 326 327 329 331 335 338 340 341 341 340 340 339 339 340 340 340 338 336 334 332 330 329 328 326 324 322 320 317 315 313 310 307 305 302 298 295 291 287 284 281 277 274 270 267 264 261 258 255 253 251 250 248 247 246 245 245 246 246 245 246 247